AEE5ZH LSZH-LGAV

Flight info

Callsign AEE5ZH
Flight time N/A
Altitude 37000
Route DEGES2Y DEGES Y170 ARGAX DCT RESIA DCT LABIN DCT ELGUS DCT AIOSA DCT XAPAT DCT NOSTO UN7 NEMES NEMES1Q
Aircraft A320/M-SDE3FGHIRWY/LB1

Departure

Time 2026-05-04 08:14
Airport Zürich Airport (LSZH)

Arrival

Time N/A
Airport Athens Eleftherios Venizelos International Airport (LGAV)
Time Latitude Longitude Altitude Speed Heading
2026-05-04 07:20 47.45345 8.55863 1412 ft 0 kts
2026-05-04 08:02 47.45277 8.55858 1407 ft 4 kts 341°
2026-05-04 08:02 47.45257 8.55877 1413 ft 4 kts 295°
2026-05-04 08:02 47.45253 8.55896 1409 ft 1 kts 276°
2026-05-04 08:03 47.45253 8.55898 1409 ft 0 kts 276°
2026-05-04 08:08 47.45326 8.55543 1409 ft 12 kts 335°
2026-05-04 08:08 47.45416 8.55482 1405 ft 16 kts 335°
2026-05-04 08:10 47.45623 8.56077 1411 ft 16 kts 96°
2026-05-04 08:11 47.45611 8.56244 1412 ft 17 kts 96°
2026-05-04 08:11 47.45584 8.56621 1417 ft 19 kts 95°
2026-05-04 08:11 47.45571 8.56803 1420 ft 12 kts 96°
2026-05-04 08:12 47.45562 8.56926 1420 ft 9 kts 96°
2026-05-04 08:12 47.45584 8.57006 1422 ft 8 kts 36°
2026-05-04 08:12 47.45627 8.57022 1425 ft 6 kts
2026-05-04 08:12 47.45656 8.57021 1425 ft 4 kts 338°
2026-05-04 08:13 47.45664 8.56993 1424 ft 2 kts 278°
2026-05-04 08:13 47.45664 8.56988 1424 ft 0 kts 276°
2026-05-04 08:13 47.45666 8.56966 1424 ft 19 kts 276°
2026-05-04 08:13 47.45707 8.56380 1419 ft 92 kts 276°
2026-05-04 08:14 47.45794 8.55149 1402 ft 146 kts 276°
2026-05-04 08:14 47.45914 8.53485 1642 ft 166 kts 277°
2026-05-04 08:14 47.46041 8.51788 2309 ft 166 kts 277°
2026-05-04 08:16 47.43089 8.40311 5400 ft 232 kts 256°